Wind_Speed
70 69 69 69 68 68 68 69 70 70 71 70 69 69 70 72 73 73 73 76 76 77 75 73 75 75 74 73 68 61 59 51 64 83 86 92 88 90 88 91 90 89 83
72 73 73 72 72 72 72 74 75 74 72 70 69 69 71 72 74 76 77 73 74 72 71 72 75 73 73 73 70 65 61 62 54 69 85 94 96 95 96 96 100 95 91
75 76 76 76 78 78 79 77 76 74 71 70 70 70 71 72 74 76 73 72 71 71 71 74 75 74 75 71 66 63 63 64 65 63 70 99 100 102 103 102 104 105 101
77 77 77 78 81 86 84 83 83 78 74 73 72 73 73 74 73 70 70 70 69 69 72 74 75 76 71 65 62 62 62 62 64 68 70 69 95 109 110 109 111 112 113
61 59 62 66 71 71 72 70 69 69 69 68 67 69 70 69 67 66 67 68 69 72 73 75 74 69 63 62 66 70 70 69 69 68 69 73 78 81 88 92 94 100 100
54 55 54 58 64 65 62 64 66 66 66 69 71 70 64 62 63 64 65 69 70 72 73 72 65 62 64 68 74 77 79 79 78 78 76 77 78 80 87 87 81 77 73
52 50 51 52 54 55 58 61 62 61 61 59 60 62 60 60 63 64 67 67 69 69 67 60 60 67 72 75 72 69 68 71 71 71 71 77 82 84 86 84 80 76 72
53 53 52 50 49 48 47 47 48 50 53 54 55 57 60 63 64 64 65 67 62 61 57 57 64 72 74 68 63 63 62 63 62 59 64 69 71 80 84 83 77 72 69
51 53 54 54 54 52 50 51 53 55 56 58 60 60 63 63 64 65 56 50 51 53 55 60 64 68 53 54 57 54 53 54 48 49 52 57 60 63 72 81 76 69 67
49 50 52 52 52 52 53 54 55 55 55 57 57 60 62 56 44 37 37 39 44 51 56 61 64 55 53 53 50 47 43 43 41 41 43 48 53 52 58 69 77 69 65
50 53 54 55 55 55 55 54 55 56 59 59 55 46 40 30 27 29 32 35 43 50 55 59 61 53 51 53 54 48 44 39 37 34 35 39 45 47 51 60 75 71 65
50 49 48 47 46 50 54 57 60 60 57 45 35 31 24 22 27 29 32 36 43 47 51 54 55 51 52 57 56 50 43 40 32 29 29 33 37 41 44 54 71 72 66
52 50 48 42 38 35 35 36 37 37 32 31 29 26 19 25 29 30 33 38 43 46 47 50 56 51 51 56 54 48 44 41 34 27 24 26 29 35 40 51 66 73 71
50 48 46 36 30 29 28 28 29 28 28 28 28 22 20 27 29 31 35 39 44 46 45 50 58 48 49 54 54 50 46 41 35 28 21 20 23 28 36 48 62 77 74
45 43 38 31 27 26 26 26 27 27 28 30 30 20 24 31 31 31 35 38 42 44 44 48 52 48 47 51 56 55 47 39 32 25 19 14 16 21 28 41 59 76 75
35 34 32 29 27 28 27 26 27 29 29 29 27 23 30 31 33 32 34 38 41 42 42 41 49 49 45 46 52 52 48 38 30 23 15 9 11 18 27 37 53 75 70
27 28 28 28 28 30 29 31 30 31 31 31 27 29 34 33 35 35 36 37 40 44 45 42 42 47 45 42 46 44 42 35 28 21 14 6 10 19 27 35 54 70 70
22 23 25 27 28 30 33 33 31 30 30 29 32 34 36 37 38 39 41 42 44 46 48 46 39 40 43 36 38 37 37 31 27 20 13 2 8 20 26 41 61 69 68
20 22 25 27 30 33 36 35 31 29 29 32 34 34 37 39 41 44 43 45 45 44 40 40 37 35 37 29 32 31 34 28 26 19 10 2 8 19 29 50 62 60 61
21 24 27 29 33 36 37 32 30 31 34 35 35 37 39 41 42 42 40 41 42 42 41 35 33 30 32 24 28 26 29 26 22 14 6 6 14 22 37 58 56 57 61
24 25 28 29 32 37 37 34 32 33 34 33 34 35 34 34 33 36 38 38 39 38 35 34 28 26 25 20 19 22 25 23 16 6 4 15 20 31 54 60 57 59 63
26 28 30 31 33 35 35 33 34 34 34 34 34 35 36 37 37 38 37 38 37 36 34 33 28 23 20 18 15 13 15 19 11 5 12 22 32 47 56 58 56 53 58
27 29 31 33 34 36 35 35 37 36 37 39 40 41 42 42 43 41 41 39 38 37 35 33 30 23 19 15 17 12 10 11 6 10 21 29 46 55 55 53 55 54 54
29 31 32 33 36 37 39 40 42 43 43 44 45 46 45 47 48 47 45 44 44 43 42 35 32 27 23 16 21 19 9 8 3 10 24 34 49 50 50 51 51 50 50
28 31 34 36 40 42 43 43 45 47 49 50 50 52 54 55 56 54 53 52 51 49 47 42 35 30 30 23 26 28 19 13 10 12 21 35 44 48 54 55 54 52 52
25 28 31 33 36 39 42 46 50 53 54 57 59 61 61 61 60 60 59 57 54 50 45 41 38 34 31 34 27 36 34 24 20 17 23 34 43 49 53 55 55 56 53
Wind_Direction
255 257 259 259 260 261 263 264 265 267 269 271 274 275 275 277 281 283 286 287 288 292 293 296 298 297 295 295 293 282 281 279 249 243 248 250 244 251 250 251 249 248 250
258 259 260 261 262 263 265 267 269 270 273 276 276 275 275 278 280 285 287 284 288 290 292 294 293 293 293 294 292 287 278 273 270 247 241 243 248 247 249 252 250 252 252
259 260 262 263 264 265 266 268 272 273 274 273 274 273 274 277 282 284 283 286 288 290 290 292 292 292 295 292 287 282 280 277 270 261 248 240 246 249 250 251 252 256 257
256 258 259 261 262 265 268 269 268 269 271 272 273 273 275 278 279 279 282 285 287 288 288 292 292 293 291 288 286 283 279 273 269 267 260 250 244 248 252 253 253 255 258
256 257 257 257 258 259 261 263 263 265 268 270 272 273 274 276 275 278 281 284 285 288 290 292 293 293 292 292 293 290 285 279 274 264 257 256 252 247 249 250 250 252 255
254 257 259 258 255 256 256 257 261 265 267 270 272 272 271 272 275 278 281 282 286 288 291 292 294 295 296 298 295 292 287 280 275 270 265 257 251 250 252 251 250 250 253
255 260 263 262 261 260 259 261 263 265 266 266 267 269 271 273 275 278 280 283 288 289 292 294 297 300 301 299 296 290 285 280 276 272 266 260 251 246 245 248 247 248 249
257 258 260 261 261 262 262 262 263 264 264 266 267 269 272 274 276 279 282 285 286 289 291 299 301 302 301 296 294 293 288 287 281 275 268 264 256 246 240 241 241 240 242
263 262 261 262 262 262 261 262 264 264 266 268 269 271 272 274 276 279 278 280 285 290 298 302 303 305 303 302 305 304 300 293 290 279 270 262 257 250 240 236 234 233 232
265 266 264 263 264 263 263 264 265 266 266 268 270 272 275 274 274 272 277 283 291 296 301 309 311 315 314 315 319 316 311 303 297 289 276 262 256 248 238 231 228 224 223
271 267 266 265 264 265 264 264 265 266 268 270 275 270 265 266 268 275 282 289 295 302 307 315 320 320 318 325 326 325 323 317 310 300 283 265 254 244 232 223 218 217 216
272 274 275 276 273 269 265 263 264 266 268 267 255 248 249 262 271 279 286 291 295 301 309 317 325 323 325 330 329 325 327 329 315 304 289 269 254 244 228 219 212 210 208
271 275 276 279 273 266 261 258 256 254 249 236 235 237 249 265 274 281 288 295 298 304 310 321 334 327 326 330 331 331 331 335 326 316 293 266 250 238 223 213 206 204 203
271 269 271 273 262 255 248 241 238 234 225 231 238 241 259 268 274 281 290 294 301 308 319 331 336 329 323 329 335 336 334 335 334 323 297 270 247 232 220 211 202 199 199
266 263 265 259 250 236 229 227 224 223 231 239 248 251 265 270 275 283 290 297 303 314 326 331 333 331 329 332 334 336 336 337 341 329 311 282 246 225 212 204 198 196 194
257 253 250 242 230 220 223 216 219 231 236 250 253 262 265 271 278 282 289 299 307 314 318 328 331 330 328 332 333 336 337 337 348 338 322 289 235 211 194 191 191 191 190
252 238 232 226 220 218 218 218 227 235 241 251 249 260 264 272 277 283 290 299 306 310 315 320 330 328 326 330 334 342 342 342 349 345 330 306 223 194 193 189 184 184 184
241 231 222 218 222 223 221 225 235 241 248 257 263 267 269 272 279 283 288 296 302 307 312 314 319 326 325 328 334 342 345 344 348 352 330 325 225 186 187 183 177 178 182
230 218 215 222 226 227 227 231 237 245 256 263 265 268 271 273 279 284 289 294 299 303 307 310 313 322 328 323 330 345 349 353 352 357 347 116 182 185 177 174 174 178 179
222 219 222 229 233 232 235 237 240 247 254 260 268 273 275 276 279 285 290 295 297 299 301 301 304 313 327 315 322 336 349 356 355 8 25 137 155 169 171 168 168 173 175
226 230 234 244 244 239 241 245 245 253 256 264 269 271 275 279 284 289 292 294 297 299 303 301 292 299 318 306 309 330 348 355 4 41 107 136 151 161 161 165 169 173 177
235 238 241 246 244 242 244 246 253 256 262 271 270 276 280 281 286 288 289 294 296 298 300 299 290 281 300 295 283 313 340 357 12 125 155 154 154 159 162 168 171 174 178
244 245 252 251 245 244 246 250 256 262 266 269 273 279 282 282 287 286 288 290 292 294 295 295 292 268 268 278 250 263 303 341 8 151 163 162 157 160 167 171 175 178 181
247 250 258 259 254 252 251 255 259 260 264 267 271 277 279 283 285 285 285 287 288 289 290 287 284 272 251 253 229 230 239 271 297 179 169 172 167 168 172 176 178 182 185
253 254 257 257 255 256 258 259 260 263 267 271 274 276 279 281 283 282 283 283 283 282 281 278 271 266 247 233 223 214 213 224 234 198 185 183 181 181 181 179 183 190 196
267 265 263 262 263 263 263 265 268 271 273 276 277 278 279 280 280 281 282 282 280 278 273 268 261 255 243 233 221 216 211 203 214 209 199 194 194 192 188 190 194 195 199
Height
10643 10647 10650 10652 10654 10655 10657 10657 10657 10657 10658 10661 10662 10659 10656 10653 10651 10650 10648 10642 10635 10630 10623 10618 10610 10604 10599 10594 10593 10593 10592 10594 10602 10603 10603 10604 10608 10610 10614 10620 10628 10637 10642
10630 10633 10635 10637 10639 10639 10639 10638 10639 10640 10643 10645 10645 10641 10638 10636 10635 10632 10629 10624 10620 10613 10609 10603 10596 10591 10585 10580 10575 10573 10573 10574 10582 10587 10581 10583 10585 10587 10590 10595 10601 10611 10621
10616 10618 10620 10620 10620 10619 10619 10622 10624 10625 10627 10626 10626 10624 10622 10621 10619 10615 10612 10607 10602 10599 10593 10587 10580 10574 10568 10563 10559 10555 10552 10552 10553 10563 10565 10562 10562 10560 10564 10571 10575 10581 10589
10596 10599 10601 10601 10601 10601 10603 10604 10606 10609 10610 10610 10610 10608 10606 10605 10603 10599 10595 10591 10587 10580 10575 10571 10564 10558 10551 10546 10542 10538 10535 10534 10532 10533 10538 10542 10545 10542 10540 10546 10552 10558 10566
10582 10583 10582 10583 10584 10585 10586 10588 10591 10593 10595 10594 10593 10591 10590 10590 10587 10585 10580 10574 10569 10564 10560 10554 10548 10541 10534 10527 10521 10512 10507 10504 10503 10504 10507 10510 10514 10519 10514 10519 10531 10540 10543
10565 10567 10569 10569 10569 10571 10571 10572 10576 10578 10578 10578 10578 10573 10574 10575 10573 10570 10566 10559 10556 10551 10544 10537 10531 10523 10515 10507 10498 10491 10481 10473 10470 10468 10472 10477 10481 10486 10485 10495 10508 10517 10525
10551 10553 10553 10555 10556 10556 10558 10560 10562 10563 10562 10562 10561 10559 10561 10560 10557 10555 10551 10548 10541 10534 10529 10523 10515 10504 10495 10487 10475 10463 10451 10441 10439 10437 10437 10437 10445 10450 10458 10467 10481 10495 10506
10536 10539 10540 10542 10543 10544 10545 10548 10549 10549 10547 10547 10547 10547 10546 10543 10541 10540 10537 10533 10526 10520 10514 10508 10500 10488 10474 10462 10452 10440 10428 10417 10412 10411 10406 10402 10409 10416 10429 10441 10458 10476 10490
10523 10524 10526 10528 10529 10531 10533 10535 10535 10534 10533 10533 10533 10533 10529 10527 10526 10527 10522 10519 10513 10508 10501 10494 10484 10472 10459 10446 10433 10420 10408 10397 10393 10384 10379 10377 10381 10388 10401 10418 10438 10456 10472
10508 10509 10510 10512 10513 10515 10517 10518 10519 10517 10517 10517 10519 10516 10512 10511 10513 10513 10511 10509 10503 10497 10488 10478 10466 10453 10440 10428 10417 10403 10390 10379 10373 10366 10359 10358 10359 10367 10379 10397 10415 10438 10455
10493 10493 10495 10496 10497 10498 10499 10501 10500 10500 10500 10500 10503 10500 10498 10501 10502 10502 10501 10500 10493 10486 10477 10465 10451 10439 10428 10414 10401 10389 10377 10367 10357 10351 10345 10343 10343 10350 10360 10374 10395 10418 10437
10477 10478 10478 10479 10479 10478 10479 10482 10482 10483 10485 10487 10488 10488 10491 10493 10493 10493 10492 10490 10485 10478 10469 10457 10443 10429 10417 10404 10390 10377 10366 10356 10346 10339 10335 10332 10331 10336 10347 10359 10379 10401 10422
10462 10463 10464 10465 10464 10464 10464 10465 10466 10468 10473 10475 10478 10481 10484 10485 10485 10484 10483 10479 10474 10468 10460 10447 10433 10420 10408 10397 10384 10371 10359 10349 10339 10331 10327 10323 10324 10328 10337 10348 10366 10387 10407
10448 10449 10451 10453 10454 10454 10455 10456 10458 10461 10465 10468 10470 10473 10476 10478 10478 10476 10474 10470 10463 10456 10448 10434 10423 10413 10405 10393 10379 10364 10354 10345 10336 10327 10322 10320 10319 10321 10329 10338 10354 10375 10398
10432 10435 10438 10442 10444 10446 10448 10450 10452 10455 10459 10461 10464 10467 10469 10469 10469 10468 10465 10460 10454 10446 10439 10431 10422 10410 10399 10388 10374 10361 10350 10342 10333 10326 10320 10319 10318 10318 10323 10333 10347 10369 10391
10418 10423 10428 10432 10435 10439 10442 10445 10447 10450 10454 10456 10458 10460 10461 10461 10459 10459 10457 10452 10446 10440 10435 10429 10419 10407 10397 10388 10375 10361 10348 10340 10333 10326 10322 10320 10319 10320 10324 10334 10347 10366 10390
10410 10414 10418 10423 10427 10432 10436 10439 10441 10444 10448 10451 10451 10452 10452 10452 10450 10449 10447 10444 10439 10433 10428 10424 10417 10406 10396 10388 10377 10364 10352 10342 10335 10329 10325 10323 10323 10325 10330 10338 10350 10370 10391
10405 10409 10413 10417 10422 10426 10430 10433 10436 10439 10442 10444 10444 10444 10443 10443 10441 10440 10438 10436 10432 10427 10422 10416 10413 10405 10395 10388 10377 10366 10356 10346 10339 10333 10329 10328 10329 10331 10335 10343 10356 10373 10393
10401 10405 10409 10413 10416 10419 10422 10426 10430 10432 10434 10434 10435 10436 10434 10434 10433 10430 10430 10426 10424 10421 10417 10411 10407 10402 10395 10388 10380 10371 10360 10352 10344 10338 10334 10333 10335 10338 10342 10352 10367 10383 10398
10399 10402 10405 10408 10410 10412 10416 10420 10423 10425 10426 10427 10426 10426 10425 10424 10423 10422 10420 10417 10414 10412 10408 10406 10401 10399 10394 10388 10382 10374 10365 10358 10351 10345 10341 10339 10340 10345 10352 10364 10378 10392 10404
10396 10399 10401 10404 10405 10407 10410 10413 10416 10417 10416 10417 10417 10415 10414 10414 10414 10413 10411 10409 10404 10402 10400 10397 10395 10394 10392 10388 10383 10378 10371 10364 10359 10353 10350 10349 10351 10357 10366 10376 10387 10399 10409
10391 10394 10396 10397 10398 10400 10402 10404 10406 10407 10406 10405 10405 10404 10404 10403 10403 10403 10401 10398 10397 10393 10393 10390 10388 10388 10388 10387 10383 10381 10375 10370 10366 10362 10360 10361 10364 10371 10380 10388 10396 10405 10415
10386 10388 10389 10390 10391 10392 10393 10394 10394 10395 10395 10395 10394 10392 10391 10390 10390 10390 10390 10388 10386 10385 10385 10384 10381 10380 10382 10383 10383 10381 10379 10376 10373 10371 10371 10373 10377 10380 10387 10395 10404 10411 10420
10379 10381 10382 10382 10383 10383 10383 10383 10383 10382 10382 10382 10381 10380 10378 10377 10376 10375 10376 10376 10375 10374 10374 10375 10375 10373 10374 10377 10378 10379 10379 10379 10378 10378 10378 10381 10384 10388 10395 10402 10408 10415 10423
10372 10373 10373 10373 10373 10373 10373 10372 10371 10370 10368 10368 10367 10365 10364 10363 10361 10360 10359 10360 10360 10360 10361 10361 10364 10365 10365 10368 10371 10374 10376 10378 10379 10381 10381 10383 10388 10391 10396 10400 10406 10413 10419
10365 10365 10364 10364 10364 10363 10362 10360 10358 10356 10353 10351 10349 10347 10346 10344 10343 10342 10341 10340 10341 10343 10343 10345 10348 10353 10356 10357 10362 10365 10370 10373 10377 10379 10381 10383 10386 10390 10393 10400 10403 10406 10413